SVW5C EDHL-ENGM

Flight info

Callsign SVW5C
Flight time 1h 18m
Altitude 24000
Route HAM1K HAM M852 SOKWO T814 EXNEL/N0412F230 M105 AMRAK/N0452F380 DCT PIPEX/N0453F370 DCT RIPAM
Aircraft A319/M-SDE3FGHIRWY/LB1

Departure

Time 2026-05-04 13:42
Airport Lübeck Blankensee Airport (EDHL)

Arrival

Time 2026-05-04 15:01
Airport Oslo-Gardermoen International Airport (ENGM)
Time Latitude Longitude Altitude Speed Heading
2026-05-04 13:34 53.80485 10.70307 59 ft 0 kts 325°
2026-05-04 13:38 53.80489 10.70306 59 ft 1 kts 342°
2026-05-04 13:38 53.80500 10.70322 55 ft 4 kts 51°
2026-05-04 13:38 53.80497 10.70382 56 ft 7 kts 135°
2026-05-04 13:38 53.80452 10.70448 57 ft 9 kts 113°
2026-05-04 13:39 53.80472 10.70574 57 ft 13 kts 72°
2026-05-04 13:39 53.80502 10.70734 59 ft 15 kts 72°
2026-05-04 13:39 53.80538 10.70922 54 ft 18 kts 72°
2026-05-04 13:39 53.80578 10.71130 57 ft 19 kts 72°
2026-05-04 13:40 53.80622 10.71359 57 ft 23 kts 72°
2026-05-04 13:40 53.80663 10.71593 54 ft 19 kts 84°
2026-05-04 13:40 53.80616 10.71807 60 ft 20 kts 113°
2026-05-04 13:40 53.80564 10.72060 60 ft 25 kts 89°
2026-05-04 13:41 53.80614 10.72354 57 ft 28 kts 72°
2026-05-04 13:41 53.80675 10.72675 59 ft 30 kts 72°
2026-05-04 13:41 53.80739 10.73004 58 ft 22 kts 72°
2026-05-04 13:42 53.80757 10.73110 56 ft 6 kts 269°
2026-05-04 13:42 53.80709 10.72843 58 ft 62 kts 252°
2026-05-04 13:42 53.80484 10.71661 161 ft 133 kts 254°
2026-05-04 13:42 53.80193 10.70096 988 ft 144 kts 253°
2026-05-04 13:43 53.79917 10.68426 1851 ft 157 kts 264°
2026-05-04 13:43 53.80255 10.66567 2432 ft 183 kts 303°
2026-05-04 13:43 53.81113 10.64772 3046 ft 209 kts 308°
2026-05-04 13:43 53.82109 10.62773 3843 ft 235 kts 308°
2026-05-04 13:44 53.83210 10.60571 4877 ft 250 kts 308°
2026-05-04 13:44 53.84346 10.58295 6122 ft 256 kts 307°
2026-05-04 13:44 53.85507 10.55952 7308 ft 262 kts 307°
2026-05-04 13:44 53.86673 10.53587 8501 ft 267 kts 307°
2026-05-04 13:45 53.87872 10.51141 9723 ft 273 kts 307°
2026-05-04 13:45 53.89108 10.48611 10615 ft 289 kts 306°
2026-05-04 13:45 53.90443 10.45869 11157 ft 314 kts 306°
2026-05-04 13:45 53.91893 10.42890 11634 ft 339 kts 307°
2026-05-04 13:46 53.93451 10.39688 11986 ft 363 kts 307°
2026-05-04 13:46 53.95112 10.36281 12402 ft 382 kts 307°
2026-05-04 13:46 53.96823 10.32777 13186 ft 388 kts 307°
2026-05-04 13:46 53.98558 10.29224 14006 ft 393 kts 307°
2026-05-04 13:47 54.00308 10.25630 14751 ft 397 kts 306°
2026-05-04 13:47 54.02073 10.21991 15477 ft 400 kts 306°
2026-05-04 13:47 54.03847 10.18318 16180 ft 404 kts 306°
2026-05-04 13:47 54.05611 10.14661 16859 ft 407 kts 306°
2026-05-04 13:48 54.07417 10.10920 17544 ft 410 kts 306°
2026-05-04 13:48 54.09237 10.07140 18185 ft 413 kts 306°
2026-05-04 13:48 54.11067 10.03333 18737 ft 417 kts 306°
2026-05-04 13:48 54.12943 9.99537 19263 ft 420 kts 307°
2026-05-04 13:49 54.14886 9.95790 19807 ft 423 kts 308°
2026-05-04 13:49 54.16876 9.92058 20314 ft 426 kts 308°
2026-05-04 13:49 54.18886 9.88326 20815 ft 429 kts 308°
2026-05-04 13:49 54.20907 9.84562 21284 ft 431 kts 308°
2026-05-04 13:50 54.22931 9.80760 21745 ft 434 kts 308°
2026-05-04 13:50 54.25124 9.77166 22190 ft 441 kts 315°
2026-05-04 13:50 54.27593 9.73983 22627 ft 446 kts 318°
2026-05-04 13:50 54.30107 9.70839 23052 ft 449 kts 318°
2026-05-04 13:51 54.32729 9.67864 23454 ft 457 kts 325°
2026-05-04 13:51 54.35660 9.65603 23801 ft 468 kts 335°
2026-05-04 13:51 54.38846 9.64200 24161 ft 478 kts 345°
2026-05-04 13:51 54.42187 9.63763 24539 ft 486 kts 355°
2026-05-04 13:52 54.48928 9.65429 25144 ft 497 kts
2026-05-04 13:52 54.52330 9.66553 25509 ft 498 kts
2026-05-04 13:52 54.55724 9.67670 25928 ft 497 kts
2026-05-04 13:53 54.59124 9.68762 26354 ft 496 kts
2026-05-04 13:53 54.62519 9.69835 26811 ft 496 kts
2026-05-04 13:53 54.65909 9.70892 27373 ft 493 kts
2026-05-04 13:54 54.72656 9.72708 28405 ft 489 kts
2026-05-04 13:54 54.76027 9.73517 28904 ft 488 kts
2026-05-04 13:54 54.82756 9.74767 29918 ft 481 kts 354°
2026-05-04 13:55 54.86074 9.74470 30403 ft 475 kts 348°
2026-05-04 13:55 54.92579 9.73429 31531 ft 469 kts 350°
2026-05-04 13:55 54.95828 9.72923 32069 ft 467 kts 350°
2026-05-04 13:56 54.99060 9.72418 32599 ft 465 kts 350°
2026-05-04 13:56 55.02277 9.71914 33118 ft 464 kts 350°
2026-05-04 13:56 55.08692 9.70882 34135 ft 462 kts 350°
2026-05-04 13:57 55.11891 9.70364 34564 ft 461 kts 350°
2026-05-04 13:57 55.15091 9.69846 35019 ft 461 kts 351°
2026-05-04 13:58 55.24632 9.68310 36303 ft 461 kts 351°
2026-05-04 13:58 55.31016 9.67284 37132 ft 461 kts 350°
2026-05-04 13:58 55.34213 9.66767 37554 ft 461 kts 350°
2026-05-04 13:59 55.37409 9.66252 37899 ft 462 kts 350°
2026-05-04 13:59 55.40617 9.65731 37995 ft 462 kts 350°
2026-05-04 14:00 55.50206 9.64157 37968 ft 461 kts 350°
2026-05-04 14:00 55.59757 9.62604 37968 ft 461 kts 350°
2026-05-04 14:01 55.66155 9.61541 37967 ft 461 kts 350°
2026-05-04 14:02 55.75747 9.59941 37962 ft 461 kts 350°
2026-05-04 14:02 55.82143 9.58879 37965 ft 461 kts 351°
2026-05-04 14:03 55.88534 9.57819 37967 ft 461 kts 351°
2026-05-04 14:03 55.94890 9.56748 37996 ft 461 kts 350°
2026-05-04 14:04 56.04486 9.55132 37984 ft 461 kts 351°
2026-05-04 14:04 56.10846 9.54075 37977 ft 461 kts 351°
2026-05-04 14:05 56.20440 9.52461 37975 ft 461 kts 350°
2026-05-04 14:06 56.26842 9.51369 37980 ft 461 kts 350°
2026-05-04 14:06 56.33201 9.50278 37975 ft 461 kts 350°
2026-05-04 14:07 56.39593 9.49183 37970 ft 461 kts 350°
2026-05-04 14:07 56.45995 9.48090 37977 ft 461 kts 350°
2026-05-04 14:08 56.52399 9.46983 37990 ft 461 kts 350°
2026-05-04 14:08 56.58744 9.45874 37981 ft 461 kts 350°
2026-05-04 14:09 56.68334 9.44207 37973 ft 461 kts 350°
2026-05-04 14:10 56.77917 9.42548 37984 ft 461 kts 350°
2026-05-04 14:10 56.84280 9.41433 37969 ft 461 kts 350°
2026-05-04 14:11 56.90674 9.40309 37978 ft 461 kts 350°
2026-05-04 14:11 57.00255 9.38624 37962 ft 461 kts 350°
2026-05-04 14:12 57.06637 9.37487 37963 ft 460 kts 349°
2026-05-04 14:13 57.16138 9.35794 37943 ft 459 kts 349°
2026-05-04 14:13 57.22506 9.34646 37951 ft 459 kts 349°
2026-05-04 14:14 57.28872 9.33494 37942 ft 460 kts 349°
2026-05-04 14:14 57.38426 9.31784 37959 ft 459 kts 349°
2026-05-04 14:15 57.51151 9.29480 37935 ft 459 kts 349°
2026-05-04 14:16 57.60681 9.27727 37921 ft 458 kts 349°
2026-05-04 14:17 57.70109 9.26004 37894 ft 455 kts 349°
2026-05-04 14:18 57.79566 9.24263 37897 ft 455 kts 349°
2026-05-04 14:19 57.92189 9.21920 37917 ft 456 kts 348°
2026-05-04 14:19 57.98496 9.20734 37891 ft 455 kts 348°
2026-05-04 14:20 58.04767 9.19565 37874 ft 456 kts 348°
2026-05-04 14:20 58.11083 9.18390 37869 ft 455 kts 348°
2026-05-04 14:21 58.20547 9.16602 37847 ft 456 kts 348°
2026-05-04 14:21 58.26857 9.15395 37828 ft 456 kts 348°
2026-05-04 14:22 58.33175 9.14189 37830 ft 456 kts 348°
2026-05-04 14:22 58.39495 9.12985 37819 ft 457 kts 348°
2026-05-04 14:23 58.48948 9.11171 37806 ft 456 kts 348°
2026-05-04 14:24 58.55274 9.09949 37808 ft 457 kts 348°
2026-05-04 14:24 58.61597 9.08736 37810 ft 457 kts 348°
2026-05-04 14:25 58.66859 9.07720 37812 ft 457 kts 348°
2026-05-04 14:25 58.76355 9.05886 37840 ft 457 kts 347°
2026-05-04 14:26 58.82769 9.06062 37822 ft 472 kts
2026-05-04 14:26 58.85963 9.07763 37574 ft 482 kts 15°
2026-05-04 14:26 58.89000 9.10621 37302 ft 490 kts 26°
2026-05-04 14:27 58.91798 9.14467 37037 ft 495 kts 32°
2026-05-04 14:27 58.94512 9.18436 36757 ft 495 kts 32°
2026-05-04 14:27 58.97267 9.22468 36505 ft 495 kts 32°
2026-05-04 14:27 59.00019 9.26494 36309 ft 495 kts 31°
2026-05-04 14:28 59.02776 9.30525 36056 ft 495 kts 31°
2026-05-04 14:28 59.05530 9.34554 35791 ft 495 kts 31°
2026-05-04 14:28 59.08247 9.38535 35546 ft 495 kts 31°
2026-05-04 14:28 59.10995 9.42574 34945 ft 495 kts 30°
2026-05-04 14:29 59.16541 9.50756 32813 ft 500 kts 30°
2026-05-04 14:29 59.22061 9.58962 30794 ft 496 kts 30°
2026-05-04 14:30 59.24756 9.63001 30635 ft 477 kts 29°
2026-05-04 14:30 59.27325 9.66886 30507 ft 458 kts 29°
2026-05-04 14:30 59.32274 9.73871 30064 ft 418 kts 18°
2026-05-04 14:31 59.34866 9.76138 29590 ft 399 kts
2026-05-04 14:31 59.40103 9.79055 28458 ft 388 kts
2026-05-04 14:32 59.45261 9.81918 27409 ft 383 kts
2026-05-04 14:32 59.47777 9.83331 26912 ft 380 kts
2026-05-04 14:32 59.50309 9.84751 26402 ft 377 kts
2026-05-04 14:32 59.52829 9.86160 25935 ft 375 kts
2026-05-04 14:33 59.55342 9.87562 25422 ft 375 kts
2026-05-04 14:33 59.57846 9.88965 24916 ft 373 kts
2026-05-04 14:33 59.60334 9.90366 24401 ft 370 kts
2026-05-04 14:33 59.62805 9.91764 23887 ft 368 kts
2026-05-04 14:34 59.65258 9.93155 23359 ft 366 kts
2026-05-04 14:34 59.67713 9.94536 22785 ft 365 kts
2026-05-04 14:34 59.70126 9.95887 22270 ft 363 kts
2026-05-04 14:34 59.72549 9.97236 21719 ft 360 kts
2026-05-04 14:35 59.74958 9.98576 21183 ft 358 kts
2026-05-04 14:35 59.77352 9.99911 20675 ft 356 kts
2026-05-04 14:35 59.79732 10.01242 20267 ft 354 kts
2026-05-04 14:35 59.82103 10.02572 19763 ft 353 kts
2026-05-04 14:36 59.84464 10.03900 19278 ft 351 kts
2026-05-04 14:36 59.86819 10.05230 18803 ft 350 kts
2026-05-04 14:36 59.89129 10.06537 18351 ft 349 kts
2026-05-04 14:36 59.91457 10.07858 17898 ft 347 kts
2026-05-04 14:37 59.93774 10.09173 17426 ft 344 kts
2026-05-04 14:37 59.96066 10.10488 16961 ft 342 kts
2026-05-04 14:37 59.98339 10.11795 16515 ft 339 kts
2026-05-04 14:37 60.00591 10.13093 16088 ft 335 kts
2026-05-04 14:38 60.02821 10.14374 15695 ft 331 kts
2026-05-04 14:38 60.05025 10.15643 15303 ft 328 kts
2026-05-04 14:38 60.07206 10.16903 14963 ft 324 kts
2026-05-04 14:38 60.09366 10.18149 14595 ft 321 kts
2026-05-04 14:39 60.11502 10.19381 14226 ft 318 kts
2026-05-04 14:39 60.13613 10.20599 13833 ft 315 kts
2026-05-04 14:39 60.15705 10.21812 13464 ft 312 kts
2026-05-04 14:40 60.19812 10.24194 12580 ft 307 kts
2026-05-04 14:40 60.21859 10.25382 12133 ft 305 kts
2026-05-04 14:40 60.23895 10.26563 11699 ft 303 kts
2026-05-04 14:40 60.25916 10.27738 11247 ft 302 kts
2026-05-04 14:41 60.27930 10.28915 10805 ft 300 kts
2026-05-04 14:41 60.29933 10.30085 10356 ft 299 kts
2026-05-04 14:41 60.33876 10.32729 9478 ft 300 kts 18°
2026-05-04 14:42 60.37665 10.36169 8691 ft 296 kts 19°
2026-05-04 14:42 60.39533 10.37862 8702 ft 294 kts 19°
2026-05-04 14:42 60.41374 10.39529 8705 ft 294 kts 19°
2026-05-04 14:43 60.43234 10.41216 8704 ft 288 kts 19°
2026-05-04 14:43 60.45005 10.42838 8705 ft 270 kts 18°
2026-05-04 14:43 60.46704 10.44231 8703 ft 258 kts
2026-05-04 14:43 60.48443 10.44901 8704 ft 254 kts
2026-05-04 14:44 60.50184 10.45491 8702 ft 253 kts
2026-05-04 14:44 60.51923 10.46094 8700 ft 253 kts
2026-05-04 14:44 60.53660 10.46692 8708 ft 253 kts
2026-05-04 14:44 60.55406 10.47237 8698 ft 254 kts
2026-05-04 14:45 60.57137 10.47945 8711 ft 258 kts 12°
2026-05-04 14:45 60.58768 10.49569 8699 ft 264 kts 26°
2026-05-04 14:45 60.60345 10.51474 8697 ft 263 kts 25°
2026-05-04 14:45 60.61929 10.53348 8699 ft 264 kts 24°
2026-05-04 14:46 60.63518 10.55209 8724 ft 263 kts 25°
2026-05-04 14:46 60.65108 10.57059 8699 ft 263 kts 25°
2026-05-04 14:46 60.66661 10.59034 8691 ft 266 kts 34°
2026-05-04 14:46 60.67960 10.61676 8702 ft 270 kts 46°
2026-05-04 14:47 60.69174 10.64593 8701 ft 269 kts 46°
2026-05-04 14:47 60.70387 10.67507 8696 ft 269 kts 46°
2026-05-04 14:47 60.71606 10.70432 8696 ft 269 kts 46°
2026-05-04 14:47 60.72819 10.73340 8696 ft 268 kts 46°
2026-05-04 14:48 60.73947 10.76390 8693 ft 271 kts 57°
2026-05-04 14:48 60.74741 10.79901 8703 ft 273 kts 66°
2026-05-04 14:48 60.75419 10.83470 8691 ft 274 kts 73°
2026-05-04 14:48 60.75528 10.87328 8575 ft 273 kts 102°
2026-05-04 14:49 60.74838 10.90854 8432 ft 266 kts 129°
2026-05-04 14:49 60.73539 10.93419 8302 ft 256 kts 154°
2026-05-04 14:49 60.71924 10.94729 8172 ft 247 kts 172°
2026-05-04 14:49 60.70261 10.95629 8041 ft 247 kts 171°
2026-05-04 14:50 60.68605 10.96533 7901 ft 246 kts 171°
2026-05-04 14:50 60.66950 10.97436 7784 ft 246 kts 171°
2026-05-04 14:50 60.65299 10.98335 7588 ft 245 kts 171°
2026-05-04 14:50 60.63653 10.99229 7375 ft 244 kts 171°
2026-05-04 14:51 60.62009 11.00125 7170 ft 244 kts 171°
2026-05-04 14:51 60.60372 11.01012 6945 ft 243 kts 171°
2026-05-04 14:51 60.58744 11.01891 6713 ft 242 kts 172°
2026-05-04 14:51 60.57114 11.02771 6525 ft 242 kts 171°
2026-05-04 14:52 60.55484 11.03651 6314 ft 241 kts 171°
2026-05-04 14:52 60.53883 11.04512 6110 ft 241 kts 171°
2026-05-04 14:52 60.52274 11.05383 5847 ft 239 kts 171°
2026-05-04 14:52 60.50663 11.06258 5574 ft 240 kts 171°
2026-05-04 14:53 60.49052 11.07129 5330 ft 239 kts 171°
2026-05-04 14:53 60.47469 11.08039 5060 ft 237 kts 165°
2026-05-04 14:53 60.46028 11.09671 4805 ft 239 kts 147°
2026-05-04 14:53 60.44814 11.11975 4545 ft 237 kts 140°
2026-05-04 14:54 60.43828 11.13917 4326 ft 234 kts 141°
2026-05-04 14:54 60.42664 11.16196 4077 ft 230 kts 141°
2026-05-04 14:54 60.41512 11.18386 3997 ft 224 kts 146°
2026-05-04 14:54 60.40161 11.19529 3998 ft 199 kts 181°
2026-05-04 14:55 60.38893 11.19230 4009 ft 174 kts 203°
2026-05-04 14:55 60.37764 11.18566 3965 ft 170 kts 203°
2026-05-04 14:55 60.36641 11.17903 3816 ft 168 kts 205°
2026-05-04 14:55 60.35523 11.17250 3599 ft 166 kts 204°
2026-05-04 14:56 60.34412 11.16600 3373 ft 165 kts 203°
2026-05-04 14:56 60.33329 11.15973 3160 ft 156 kts 203°
2026-05-04 14:56 60.32337 11.15400 2974 ft 138 kts 204°
2026-05-04 14:56 60.31474 11.14902 2779 ft 120 kts 206°
2026-05-04 14:57 60.30693 11.14446 2614 ft 114 kts 207°
2026-05-04 14:57 60.29945 11.14009 2467 ft 110 kts 206°
2026-05-04 14:57 60.29220 11.13586 2331 ft 109 kts 205°
2026-05-04 14:57 60.28495 11.13162 2166 ft 110 kts 207°
2026-05-04 14:58 60.27757 11.12732 2008 ft 110 kts 205°
2026-05-04 14:58 60.27022 11.12306 1856 ft 109 kts 205°
2026-05-04 14:58 60.26293 11.11883 1705 ft 109 kts 205°
2026-05-04 14:58 60.25553 11.11453 1541 ft 112 kts 205°
2026-05-04 14:59 60.24800 11.11016 1383 ft 113 kts 204°
2026-05-04 14:59 60.24041 11.10577 1227 ft 113 kts 204°
2026-05-04 14:59 60.22578 11.09729 936 ft 107 kts 203°
2026-05-04 15:00 60.21851 11.09299 775 ft 112 kts 202°
2026-05-04 15:00 60.21103 11.08877 684 ft 105 kts 200°
2026-05-04 15:00 60.20511 11.08530 675 ft 70 kts 195°
2026-05-04 15:01 60.19941 11.08302 675 ft 23 kts 146°
2026-05-04 15:01 60.19881 11.08523 674 ft 18 kts 105°
2026-05-04 15:01 60.19862 11.08662 678 ft 0 kts 105°
2026-05-04 15:02 60.19861 11.08667 678 ft 2 kts 105°
2026-05-04 15:02 60.19809 11.08686 679 ft 14 kts 191°
2026-05-04 15:02 60.19692 11.08622 679 ft 20 kts 195°
2026-05-04 15:02 60.19547 11.08549 678 ft 14 kts 171°
2026-05-04 15:03 60.19505 11.08698 678 ft 8 kts 142°
2026-05-04 15:03 60.19456 11.08681 679 ft 5 kts 197°
2026-05-04 15:03 60.19424 11.08663 678 ft 6 kts 195°
2026-05-04 15:03 60.19419 11.08660 678 ft 0 kts 195°